GW0224 Weather Reports


time (UTC)temp
F
wind
direction
speed
knots
gust
knots
rain 1hr
in
rain 24hr
in
rain mn
in
humidity
%
barometer
mb
20260507085510 35 252 0.0 1.7 0.00 0.00 0.00 63 1023.0
20260507085011 35 252 0.9 1.7 0.00 0.00 0.00 62 1022.9
20260507084531 35 252 0.0 2.6 0.00 0.00 0.00 61 1022.7
20260507084012 36 0 0.9 2.6 0.00 0.00 0.00 61 1022.6
20260507083508 36 252 0.9 2.6 0.00 0.00 0.00 60 1022.6
20260507083030 36 258 0.9 1.7 0.00 0.00 0.00 59 1022.6
20260507082510 36 258 0.9 1.7 0.00 0.00 0.00 59 1022.5
20260507082012 36 263 0.9 2.6 0.00 0.00 0.00 61 1022.6
20260507081536 36 263 0.9 2.6 0.00 0.00 0.00 63 1022.6
20260507081011 36 261 0.9 2.6 0.00 0.00 0.00 62 1022.6
20260507080510 36 261 0.9 1.7 0.00 0.00 0.00 61 1022.6
20260507080030 36 261 0.9 1.7 0.00 0.00 0.00 60 1022.7
20260507075510 36 0 0.0 1.7 0.00 0.00 0.00 58 1022.6
20260507075009 36 0 0.0 1.7 0.00 0.00 0.00 58 1022.6
20260507074531 36 0 0.0 2.6 0.00 0.00 0.00 57 1022.7
20260507074009 36 0 0.0 2.6 0.00 0.00 0.00 57 1022.7
20260507073511 36 0 0.0 2.6 0.00 0.00 0.00 57 1022.6
20260507073028 37 261 0.0 2.6 0.00 0.00 0.00 56 1022.5
20260507072510 37 261 0.9 2.6 0.00 0.00 0.00 56 1022.5
20260507072010 37 261 0.9 1.7 0.00 0.00 0.00 55 1022.5
20260507071529 37 261 0.9 1.7 0.00 0.00 0.00 55 1022.6
20260507071010 37 261 0.9 1.7 0.00 0.00 0.00 55 1022.5
20260507070512 37 261 0.9 1.7 0.00 0.00 0.00 55 1022.5
20260507070040 37 261 0.0 1.7 0.00 0.00 0.00 54 1022.5
20260507065510 38 0 0.0 1.7 0.00 0.00 0.00 54 1022.5
20260507065013 38 0 0.9 1.7 0.00 0.00 0.00 54 1022.4
20260507064528 38 261 0.0 2.6 0.00 0.00 0.00 54 1022.3
20260507064008 38 261 0.9 2.6 0.00 0.00 0.00 54 1022.3
20260507063509 38 271 0.9 3.5 0.00 0.00 0.00 54 1022.2
20260507063033 38 275 1.7 3.5 0.00 0.00 0.00 53 1022.3
20260507062510 39 287 1.7 3.5 0.00 0.00 0.00 54 1022.1
20260507062009 39 123 0.0 6.1 0.00 0.00 0.00 53 1022.1
20260507061527 39 0 0.0 6.1 0.00 0.00 0.00 52 1022.1
20260507061015 40 267 1.7 2.6 0.00 0.00 0.00 51 1022.0
20260507060509 40 276 0.9 2.6 0.00 0.00 0.00 50 1021.9
20260507060030 40 0 0.0 2.6 0.00 0.00 0.00 50 1022.0
20260507055511 41 284 0.0 2.6 0.00 0.00 0.00 50 1022.1
20260507055018 41 94 0.0 5.2 0.00 0.00 0.00 50 1022.0
20260507054530 41 0 0.9 5.2 0.00 0.00 0.00 50 1021.9
20260507054010 42 0 0.0 1.7 0.00 0.00 0.00 49 1021.8
20260507053508 42 260 0.0 2.6 0.00 0.00 0.00 48 1021.8
20260507053030 42 260 0.0 2.6 0.00 0.00 0.00 48 1021.9
20260507052510 43 279 1.7 2.6 0.00 0.00 0.00 47 1021.9
20260507052012 44 302 0.9 2.6 0.00 0.00 0.00 45 1021.9
20260507051530 45 0 0.0 3.5 0.00 0.00 0.00 45 1021.9
20260507051008 45 0 0.9 3.5 0.00 0.00 0.00 45 1021.9
20260507050514 46 0 0.9 2.6 0.00 0.00 0.00 43 1021.7
20260507050032 46 250 0.9 2.6 0.00 0.00 0.00 43 1021.6
20260507045511 46 259 0.9 2.6 0.00 0.00 0.00 43 1021.4
20260507045007 46 249 0.9 1.7 0.00 0.00 0.00 43 1021.4
20260507044526 46 0 0.0 0.0 0.00 0.00 0.00 44 1021.4
20260507044012 46 0 0.0 0.0 0.00 0.00 0.00 43 1021.4
20260507043510 47 0 0.0 1.7 0.00 0.00 0.00 44 1021.4
20260507043028 47 0 0.0 1.7 0.00 0.00 0.00 43 1021.4
20260507042508 47 0 0.0 1.7 0.00 0.00 0.00 42 1021.3
20260507042016 47 0 0.0 1.7 0.00 0.00 0.00 42 1021.4
20260507041529 47 0 0.0 1.7 0.00 0.00 0.00 42 1021.3
20260507041008 47 248 0.9 1.7 0.00 0.00 0.00 42 1021.2
20260507040509 47 246 0.9 1.7 0.00 0.00 0.00 42 1021.2
20260507040028 47 0 0.0 1.7 0.00 0.00 0.00 42 1021.2
20260507035508 47 246 0.0 1.7 0.00 0.00 0.00 42 1021.1
20260507035008 47 246 0.9 1.7 0.00 0.00 0.00 42 1021.1
20260507034539 48 246 0.9 2.6 0.00 0.00 0.00 41 1020.9
20260507034010 48 246 0.0 2.6 0.00 0.00 0.00 41 1020.8
20260507033509 48 246 0.9 2.6 0.00 0.00 0.00 41 1020.8
20260507033041 48 246 0.9 1.7 0.00 0.00 0.00 41 1020.8
20260507032512 48 0 0.0 2.6 0.00 0.00 0.00 40 1020.7
20260507032010 49 246 0.0 2.6 0.00 0.00 0.00 40 1020.6
20260507031544 49 0 0.9 2.6 0.00 0.00 0.00 40 1020.5
20260507031012 49 262 0.0 1.7 0.00 0.00 0.00 39 1020.4
20260507030510 50 262 0.0 1.7 0.00 0.00 0.00 39 1020.3
20260507030032 50 262 0.9 1.7 0.00 0.00 0.00 38 1020.1
20260507025508 51 0 0.0 1.7 0.00 0.00 0.00 38 1020.1
20260507025013 51 277 0.0 1.7 0.00 0.00 0.00 37 1020.0
20260507024529 52 0 0.0 1.7 0.00 0.00 0.00 36 1019.9
20260507024011 52 277 0.0 1.7 0.00 0.00 0.00 36 1019.8
20260507023509 53 0 0.0 1.7 0.00 0.00 0.00 35 1019.8
20260507023026 53 250 0.0 2.6 0.00 0.00 0.00 34 1019.7
20260507022510 54 250 0.0 2.6 0.00 0.00 0.00 34 1019.7
20260507022011 55 277 0.0 1.7 0.00 0.00 0.00 33 1019.7
20260507021530 55 0 0.0 2.6 0.00 0.00 0.00 32 1019.6
20260507021010 56 277 0.9 2.6 0.00 0.00 0.00 32 1019.6
20260507020512 56 277 0.0 2.6 0.00 0.00 0.00 31 1019.6
20260507020030 57 0 0.0 2.6 0.00 0.00 0.00 30 1019.5
20260507015514 58 0 0.0 2.6 0.00 0.00 0.00 30 1019.5
20260507015010 58 316 0.0 1.7 0.00 0.00 0.00 30 1019.6
20260507014540 58 248 0.0 2.6 0.00 0.00 0.00 30 1019.6
20260507014010 58 0 0.0 2.6 0.00 0.00 0.00 29 1019.5
20260507013508 59 0 0.0 1.7 0.00 0.00 0.00 29 1019.5
20260507013036 59 0 0.0 2.6 0.00 0.00 0.00 29 1019.4
20260507012510 59 0 0.0 2.6 0.00 0.00 0.00 28 1019.5
20260507012009 59 0 0.0 2.6 0.00 0.00 0.00 28 1019.3
20260507011534 60 0 0.0 3.5 0.00 0.00 0.00 27 1019.3
20260507011010 60 0 0.9 7.0 0.00 0.00 0.00 27 1019.3
20260507010512 60 254 2.6 7.0 0.00 0.00 0.00 27 1019.4
20260507010037 60 38 0.9 5.2 0.00 0.00 0.00 27 1019.2
20260507005513 60 332 1.7 5.2 0.00 0.00 0.00 26 1019.2
20260507005023 60 223 0.9 3.5 0.00 0.00 0.00 26 1019.2
20260507004527 61 5 0.0 7.8 0.00 0.00 0.00 26 1019.2
20260507004010 61 22 1.7 7.8 0.00 0.00 0.00 26 1019.2
20260507003512 61 0 1.7 4.3 0.00 0.00 0.00 26 1019.1
20260507003030 61 0 0.0 7.0 0.00 0.00 0.00 26 1019.1
20260507002513 61 22 1.7 7.0 0.00 0.00 0.00 25 1019.0
20260507002011 61 317 1.7 7.0 0.00 0.00 0.00 25 1019.0
20260507001528 61 260 0.0 7.0 0.00 0.00 0.00 25 1019.0
20260507001010 61 286 1.7 7.8 0.00 0.00 0.00 24 1019.0
20260507000511 61 246 2.6 7.8 0.00 0.00 0.00 25 1019.0
20260507000028 62 26 0.9 8.7 0.00 0.00 0.00 24 1018.8
20260506235511 62 349 1.7 8.7 0.00 0.00 0.00 24 1018.8
20260506235010 62 136 0.9 4.3 0.00 0.00 0.00 24 1018.7
20260506234530 62 225 0.9 8.7 0.00 0.00 0.00 24 1018.7
20260506234012 62 332 0.9 8.7 0.00 0.00 0.00 23 1018.8
20260506233510 62 286 0.9 7.8 0.00 0.00 0.00 23 1018.9
20260506233028 62 5 3.5 7.8 0.00 0.00 0.00 22 1018.9
20260506232508 62 27 2.6 7.8 0.00 0.00 0.00 22 1018.8
20260506232009 63 248 2.6 7.0 0.00 0.00 0.00 23 1018.7
20260506231533 62 257 0.9 7.8 0.00 0.00 0.00 25 1018.7
20260506231007 62 98 1.7 7.8 0.00 0.00 0.00 25 1018.7
20260506230509 62 27 3.5 9.6 0.00 0.00 0.00 25 1018.6
20260506230030 62 335 2.6 9.6 0.00 0.00 0.00 24 1018.6
20260506225513 62 360 3.5 13.0 0.00 0.00 0.00 24 1018.6
20260506225018 62 342 5.2 13.0 0.00 0.00 0.00 23 1018.6
20260506224528 62 43 4.3 9.6 0.00 0.00 0.00 24 1018.7
20260506224010 63 318 1.7 11.3 0.00 0.00 0.00 23 1018.7
20260506223506 63 5 4.3 13.0 0.00 0.00 0.00 24 1018.7
20260506223028 63 292 1.7 13.0 0.00 0.00 0.00 24 1018.6
20260506222509 63 53 3.5 12.2 0.00 0.00 0.00 24 1018.6
20260506222013 63 12 5.2 10.4 0.00 0.00 0.00 23 1018.7
20260506221530 63 360 4.3 9.6 0.00 0.00 0.00 22 1018.7
20260506221015 64 0 4.3 9.6 0.00 0.00 0.00 21 1018.7
20260506220509 65 316 1.7 7.8 0.00 0.00 0.00 21 1018.8
20260506220028 65 303 1.7 9.6 0.00 0.00 0.00 24 1019.1
20260506215510 64 296 1.7 9.6 0.00 0.00 0.00 25 1019.1
20260506215008 64 350 4.3 9.6 0.00 0.00 0.00 25 1018.8
20260506214529 64 205 2.6 8.7 0.00 0.00 0.00 27 1019.0
20260506214007 63 325 5.2 9.6 0.00 0.00 0.00 27 1018.9
20260506213513 64 74 3.5 9.6 0.00 0.00 0.00 24 1019.1
20260506213028 64 10 4.3 9.6 0.00 0.00 0.00 20 1019.1
20260506212507 64 329 2.6 9.6 0.00 0.00 0.00 24 1019.1
20260506212010 64 290 1.7 11.3 0.00 0.00 0.00 26 1019.2
20260506211530 63 338 4.3 13.9 0.00 0.00 0.00 28 1019.2
20260506211011 63 340 3.5 13.9 0.00 0.00 0.00 27 1019.2
20260506210512 64 27 5.2 11.3 0.00 0.00 0.00 27 1019.2
20260506210033 64 0 0.9 9.6 0.00 0.00 0.00 26 1019.1
20260506205511 63 275 2.6 9.6 0.00 0.03 0.00 28 1019.3
20260506205009 63 250 2.6 13.0 0.00 0.03 0.00 28 1019.1
20260506204527 63 60 6.1 13.0 0.00 0.03 0.00 27 1019.1
20260506204011 63 360 2.6 7.0 0.00 0.03 0.00 28 1019.2
20260506203516 63 277 1.7 10.4 0.00 0.03 0.00 27 1019.2
20260506203035 63 0 4.3 10.4 0.00 0.03 0.00 30 1019.3
20260506202510 64 342 1.7 9.6 0.00 0.03 0.00 31 1019.3
20260506202013 63 281 2.6 7.8 0.00 0.03 0.00 29 1019.3
20260506201536 63 40 1.7 9.6 0.00 0.03 0.00 31 1019.3
20260506201010 62 340 3.5 13.0 0.00 0.03 0.00 29 1019.2
20260506200509 62 318 7.0 13.0 0.00 0.03 0.00 30 1019.2
20260506200028 62 234 2.6 7.8 0.00 0.03 0.00 30 1019.2
20260506195510 61 87 3.5 7.8 0.00 0.03 0.00 30 1019.3
20260506195011 61 336 1.7 11.3 0.00 0.03 0.00 33 1019.3
20260506194530 61 5 1.7 11.3 0.00 0.03 0.00 32 1019.3
20260506194008 60 24 3.5 12.2 0.00 0.03 0.00 32 1019.4
20260506193511 61 22 2.6 12.2 0.00 0.03 0.00 30 1019.4
20260506193027 61 30 3.5 12.2 0.00 0.03 0.00 32 1019.4
20260506192510 60 323 3.5 8.7 0.00 0.03 0.00 32 1019.4
20260506192014 61 310 2.6 8.7 0.00 0.03 0.00 31 1019.5
20260506191528 61 0 1.7 8.7 0.00 0.03 0.00 32 1019.4
20260506191010 60 0 1.7 10.4 0.00 0.03 0.00 32 1019.4
20260506190509 60 54 2.6 10.4 0.00 0.03 0.00 31 1019.6
20260506190031 60 5 1.7 8.7 0.00 0.03 0.00 31 1019.7
20260506185510 59 306 1.7 8.7 0.00 0.03 0.00 35 1019.6
20260506185009 59 330 2.6 8.7 0.00 0.03 0.00 34 1019.6
20260506184535 60 32 1.7 7.0 0.00 0.03 0.00 35 1019.7
20260506184013 59 73 1.7 7.0 0.00 0.03 0.00 33 1019.8
20260506183510 59 59 2.6 13.0 0.00 0.03 0.00 34 1019.8
20260506183029 58 27 3.5 13.0 0.00 0.03 0.00 36 1019.8
20260506182511 58 355 6.1 13.0 0.00 0.03 0.00 35 1019.8
20260506182013 58 0 1.7 9.6 0.00 0.03 0.00 36 1019.8
20260506181529 58 233 3.5 9.6 0.00 0.03 0.00 36 1019.8
20260506181011 58 0 1.7 8.7 0.00 0.03 0.00 36 1019.8
20260506180510 57 338 1.7 8.7 0.00 0.03 0.00 38 1019.8
20260506180030 56 343 2.6 8.7 0.00 0.03 0.00 38 1019.7
20260506175509 56 11 3.5 11.3 0.00 0.03 0.00 38 1019.7
20260506175012 56 355 3.5 11.3 0.00 0.03 0.00 37 1019.6
20260506174529 56 44 4.3 9.6 0.00 0.03 0.00 38 1019.8
20260506174009 56 22 3.5 7.8 0.00 0.03 0.00 38 1019.8
20260506173512 56 92 3.5 9.6 0.00 0.03 0.00 37 1019.8
20260506173032 56 22 2.6 9.6 0.00 0.03 0.00 37 1019.8
20260506172507 55 13 2.6 11.3 0.00 0.03 0.00 37 1019.7
20260506172010 55 313 3.5 11.3 0.00 0.03 0.00 37 1019.8
20260506171530 55 38 5.2 11.3 0.00 0.03 0.00 37 1019.6
20260506171008 55 42 2.6 10.4 0.00 0.03 0.00 39 1019.7
20260506170514 55 26 4.3 10.4 0.00 0.03 0.00 38 1019.7
20260506170029 54 49 2.6 8.7 0.00 0.03 0.00 38 1019.6
20260506165511 54 350 3.5 8.7 0.00 0.03 0.00 40 1019.6
20260506165010 54 9 3.5 7.8 0.00 0.03 0.00 38 1019.6
20260506164526 54 15 2.6 8.7 0.00 0.03 0.00 38 1019.7
20260506164011 54 317 2.6 8.7 0.00 0.03 0.00 39 1019.6
20260506163509 53 33 3.5 9.6 0.00 0.03 0.00 39 1019.5
20260506163031 54 306 2.6 9.6 0.00 0.03 0.00 39 1019.6
20260506162506 53 39 4.3 9.6 0.00 0.03 0.00 39 1019.4
20260506162011 53 345 2.6 9.6 0.00 0.03 0.00 38 1019.5
20260506161530 53 5 4.3 9.6 0.00 0.03 0.00 39 1019.3
20260506161010 53 343 2.6 11.3 0.00 0.03 0.00 39 1019.3
20260506160513 53 137 1.7 11.3 0.00 0.03 0.00 40 1019.4
20260506160030 53 360 1.7 8.7 0.00 0.03 0.00 42 1019.3
20260506155510 53 9 2.6 8.7 0.00 0.03 0.00 41 1019.3
20260506155009 53 355 1.7 5.2 0.00 0.03 0.00 41 1019.3
20260506154531 53 280 1.7 4.3 0.00 0.03 0.00 45 1019.4
20260506154018 52 86 0.9 4.3 0.00 0.03 0.00 44 1019.2
20260506153514 51 302 0.9 4.3 0.00 0.03 0.00 45 1019.2
20260506153028 51 178 1.7 5.2 0.00 0.03 0.00 47 1019.2
20260506152508 50 257 1.7 5.2 0.00 0.03 0.00 47 1019.3
20260506152012 50 229 1.7 4.3 0.00 0.03 0.00 47 1019.2
20260506151529 49 238 1.7 4.3 0.00 0.03 0.00 52 1019.2
20260506151008 49 236 1.7 4.3 0.00 0.03 0.00 50 1019.1
20260506150510 48 17 1.7 3.5 0.00 0.03 0.00 53 1019.0
20260506150028 47 305 0.9 3.5 0.00 0.03 0.00 56 1018.9
20260506145511 45 198 0.9 5.2 0.00 0.03 0.00 61 1018.8
20260506145009 44 355 1.7 5.2 0.00 0.03 0.00 62 1018.8
20260506144534 43 65 1.7 2.6 0.00 0.03 0.00 67 1018.8
20260506144011 42 101 0.9 2.6 0.00 0.03 0.00 70 1018.8
20260506143508 41 102 0.9 1.7 0.00 0.03 0.00 73 1018.8
20260506143027 40 0 0.9 2.6 0.00 0.03 0.00 74 1018.8
20260506142514 39 0 0.9 2.6 0.00 0.03 0.00 78 1018.9
20260506142010 37 0 0.0 0.0 0.00 0.03 0.00 79 1018.8
20260506141531 36 0 0.0 0.0 0.00 0.03 0.00 82 1018.9
20260506141018 35 0 0.0 0.0 0.00 0.03 0.00 85 1018.9
20260506140511 34 0 0.0 0.0 0.00 0.03 0.00 87 1018.8
20260506140028 32 0 0.0 0.0 0.00 0.03 0.00 87 1018.7
20260506135513 32 0 0.0 0.0 0.00 0.03 0.00 87 1018.6
20260506135010 31 0 0.0 0.0 0.00 0.03 0.00 87 1018.5
20260506134527 30 0 0.0 0.0 0.00 0.03 0.00 87 1018.5
20260506134011 30 0 0.0 0.0 0.00 0.03 0.00 88 1018.4
20260506133516 29 0 0.0 0.0 0.00 0.03 0.00 88 1018.5
20260506133030 28 0 0.0 0.0 0.00 0.03 0.00 89 1018.4
20260506132513 28 0 0.0 0.0 0.00 0.03 0.00 89 1018.3
20260506132011 27 0 0.0 0.0 0.00 0.03 0.00 89 1018.3
20260506131531 27 0 0.0 0.0 0.00 0.03 0.00 89 1018.3
20260506131011 26 0 0.0 0.0 0.00 0.03 0.00 89 1018.1
20260506130507 26 0 0.0 0.0 0.00 0.03 0.00 89 1018.1
20260506130028 26 0 0.0 0.0 0.00 0.03 0.00 89 1018.1
20260506125510 26 0 0.0 0.0 0.00 0.03 0.00 88 1018.0
20260506125010 26 0 0.0 0.0 0.00 0.03 0.00 88 1018.0
20260506124527 26 0 0.0 0.0 0.00 0.03 0.00 88 1017.9
20260506124010 26 0 0.0 0.0 0.00 0.03 0.00 88 1017.8
20260506123507 26 0 0.0 0.0 0.00 0.03 0.00 88 1017.8
20260506123028 26 0 0.0 0.0 0.00 0.03 0.00 88 1017.8
20260506122507 26 0 0.0 0.0 0.00 0.03 0.00 88 1017.6
20260506122010 26 0 0.0 0.0 0.00 0.03 0.00 88 1017.6
20260506121528 26 0 0.0 0.0 0.00 0.03 0.00 88 1017.6
20260506121011 26 0 0.0 0.0 0.00 0.03 0.00 88 1017.5
20260506120508 26 0 0.0 0.0 0.00 0.03 0.00 87 1017.5
20260506120029 26 0 0.0 0.0 0.00 0.03 0.00 87 1017.6
20260506115519 26 0 0.0 0.0 0.00 0.03 0.00 87 1017.5
20260506115009 26 0 0.0 0.0 0.00 0.03 0.00 87 1017.4
20260506114533 26 0 0.0 0.0 0.00 0.03 0.00 87 1017.6
20260506114012 26 0 0.0 0.0 0.00 0.03 0.00 87 1017.4
20260506113510 26 0 0.0 0.0 0.00 0.03 0.00 87 1017.4
20260506113030 26 0 0.0 0.0 0.00 0.03 0.00 87 1017.5
20260506112510 26 0 0.0 0.0 0.00 0.03 0.00 87 1017.5
20260506112009 26 0 0.0 0.0 0.00 0.03 0.00 87 1017.3
20260506111529 26 0 0.0 0.0 0.00 0.03 0.00 87 1017.4
20260506111009 26 0 0.0 0.0 0.00 0.03 0.00 87 1017.3
20260506110507 26 0 0.0 0.0 0.00 0.03 0.00 87 1017.3
20260506110028 26 0 0.0 0.0 0.00 0.03 0.00 87 1017.2
20260506105507 26 0 0.0 0.0 0.00 0.03 0.00 86 1017.2
20260506105009 26 0 0.0 0.0 0.00 0.03 0.00 86 1017.3
20260506104528 26 0 0.0 0.0 0.00 0.03 0.00 86 1017.1
20260506104009 26 0 0.0 0.9 0.00 0.03 0.00 86 1017.1
20260506103559 26 0 0.0 1.7 0.00 0.03 0.00 86 1017.1
20260506103033 26 0 0.0 1.7 0.00 0.03 0.00 86 1016.8
20260506102510 26 0 0.9 1.7 0.00 0.03 0.00 85 1016.8
20260506102012 26 236 0.9 1.7 0.00 0.03 0.00 85 1016.8
20260506101610 26 236 0.9 1.7 0.00 0.03 0.00 85 1016.8
20260506101010 26 0 0.0 0.9 0.00 0.03 0.00 85 1016.8
20260506100509 26 0 0.0 0.9 0.00 0.03 0.00 85 1016.8
20260506100027 26 0 0.0 1.7 0.00 0.03 0.00 85 1016.7
20260506095507 26 236 0.0 1.7 0.00 0.03 0.00 84 1016.7
20260506095013 26 236 0.0 1.7 0.00 0.03 0.00 84 1016.7
20260506094528 26 0 0.0 0.9 0.00 0.03 0.00 84 1016.7
20260506094017 26 0 0.0 0.9 0.00 0.03 0.00 84 1016.8
20260506093514 27 0 0.0 0.0 0.00 0.03 0.00 83 1016.5
20260506093038 27 0 0.0 1.7 0.00 0.03 0.00 83 1016.6
20260506092510 27 0 0.0 2.6 0.00 0.03 0.00 83 1016.7
20260506092013 27 236 0.9 2.6 0.00 0.03 0.00 83 1016.6
20260506091529 27 236 0.9 1.7 0.00 0.03 0.00 83 1016.7
20260506091007 27 236 0.0 1.7 0.00 0.03 0.00 83 1016.6
20260506090530 27 0 0.0 1.7 0.00 0.03 0.00 83 1016.6
20260506090028 27 0 0.0 1.7 0.00 0.03 0.00 83 1016.6